,,,PA_Meas_PMT16A,,PR_Meas_QMR101_102,,RH_Meas_QMH101,,SR_Meas_QMS101,,TA_Meas_QMH101,,GenWind,,GenWind,
date,time,status,PA,status,PR,status,RH,status,SR,status,TA,status,DirAvg,status,SpdAvg,
2008-03-19, 00:00:04,VALID,1007.93,VALID,0,VALID,95.0703,VALID,0,VALID,23.8499,VALID,75,VALID,0,
2008-03-19, 00:01:04,VALID,1007.9,VALID,0,VALID,95.0931,VALID,0.105969,VALID,23.8286,VALID,75,VALID,0,
2008-03-19, 00:02:04,VALID,1007.87,VALID,0,VALID,95.1847,VALID,0.105969,VALID,23.8091,VALID,75,VALID,0,
2008-03-19, 00:03:04,VALID,1007.88,VALID,0,VALID,95.2304,VALID,0,VALID,23.8109,VALID,75,VALID,0,
2008-03-19, 00:04:04,VALID,1007.87,VALID,0,VALID,95.238,VALID,0.105969,VALID,23.7896,VALID,75,VALID,0,
2008-03-19, 00:05:04,VALID,1007.91,VALID,0,VALID,95.2838,VALID,0.105969,VALID,23.7914,VALID,75,VALID,0,
2008-03-19, 00:06:04,VALID,1007.86,VALID,0,VALID,95.36,VALID,0,VALID,23.7914,VALID,75,VALID,0.0230469,
2008-03-19, 00:07:04,VALID,1007.88,VALID,0,VALID,95.3905,VALID,0.105969,VALID,23.7914,VALID,75,VALID,0.0382813,
2008-03-19, 00:08:04,VALID,1007.91,VALID,0,VALID,95.4287,VALID,0,VALID,23.772,VALID,75,VALID,0,
2008-03-19, 00:09:04,VALID,1007.88,VALID,0,VALID,95.4439,VALID,0,VALID,23.7701,VALID,75,VALID,0,
2008-03-19, 00:10:04,VALID,1007.87,VALID,0,VALID,95.4592,VALID,0.105969,VALID,23.7507,VALID,75,VALID,0,
2008-03-19, 00:11:04,VALID,1007.85,VALID,0,VALID,95.4821,VALID,0,VALID,23.7507,VALID,75,VALID,0,
2008-03-19, 00:12:04,VALID,1007.84,VALID,0,VALID,95.4821,VALID,0.105969,VALID,23.7525,VALID,75,VALID,0,
2008-03-19, 00:13:04,VALID,1007.81,VALID,0,VALID,95.5049,VALID,0,VALID,23.7525,VALID,75,VALID,0,
2008-03-19, 00:14:04,VALID,1007.78,VALID,0,VALID,95.5507,VALID,0,VALID,23.733,VALID,75,VALID,0,
2008-03-19, 00:15:04,VALID,1007.78,VALID,0,VALID,95.5964,VALID,0,VALID,23.733,VALID,75,VALID,0.0015625,
2008-03-19, 00:16:04,VALID,1007.75,VALID,0,VALID,95.6346,VALID,0,VALID,23.733,VALID,75,VALID,0,
2008-03-19, 00:17:04,VALID,1007.73,VALID,0,VALID,95.6574,VALID,0.105969,VALID,23.7135,VALID,75,VALID,0,
2008-03-19, 00:18:04,VALID,1007.77,VALID,0,VALID,95.6574,VALID,0.105969,VALID,23.7135,VALID,75,VALID,0,
2008-03-19, 00:19:04,VALID,1007.78,VALID,0,VALID,95.6803,VALID,0.105969,VALID,23.7117,VALID,75,VALID,0,
2008-03-19, 00:20:04,VALID,1007.75,VALID,0,VALID,95.6574,VALID,0,VALID,23.7135,VALID,75,VALID,0,
2008-03-19, 00:21:04,VALID,1007.76,VALID,0,VALID,95.6422,VALID,0.105969,VALID,23.694,VALID,75,VALID,0,
2008-03-19, 00:22:04,VALID,1007.72,VALID,0,VALID,95.6498,VALID,0.105969,VALID,23.6532,VALID,75,VALID,0,
2008-03-19, 00:23:04,VALID,1007.71,VALID,0,VALID,95.7108,VALID,0.105969,VALID,23.6745,VALID,75,VALID,0,
2008-03-19, 00:24:04,VALID,1007.67,VALID,0,VALID,95.7337,VALID,0,VALID,23.6338,VALID,75,VALID,0,
2008-03-19, 00:25:04,VALID,1007.68,VALID,0,VALID,95.7642,VALID,0.105969,VALID,23.6338,VALID,75,VALID,0,
2008-03-19, 00:26:04,VALID,1007.68,VALID,0,VALID,95.8176,VALID,0.105969,VALID,23.6745,VALID,75,VALID,0,
2008-03-19, 00:27:04,VALID,1007.62,VALID,0,VALID,95.9091,VALID,0.105969,VALID,23.6532,VALID,75,VALID,0,
2008-03-19, 00:28:04,VALID,1007.63,VALID,0,VALID,95.9167,VALID,0.105969,VALID,23.6727,VALID,75,VALID,0,
2008-03-19, 00:29:04,VALID,1007.6,VALID,0,VALID,95.871,VALID,0,VALID,23.6745,VALID,75,VALID,0,
2008-03-19, 00:30:04,VALID,1007.58,VALID,0,VALID,95.8786,VALID,0.105969,VALID,23.6727,VALID,75,VALID,0,
2008-03-19, 00:31:04,VALID,1007.54,VALID,0,VALID,95.8405,VALID,0.105969,VALID,23.6727,VALID,75,VALID,0,
2008-03-19, 00:32:04,VALID,1007.5,VALID,0,VALID,95.81,VALID,0.105969,VALID,23.694,VALID,75,VALID,0,
2008-03-19, 00:33:04,VALID,1007.49,VALID,0,VALID,95.81,VALID,0.105969,VALID,23.6727,VALID,75,VALID,0,
2008-03-19, 00:34:04,VALID,1007.48,VALID,0,VALID,95.7795,VALID,0.105969,VALID,23.6532,VALID,75,VALID,0,
2008-03-19, 00:35:04,VALID,1007.49,VALID,0,VALID,95.7337,VALID,0,VALID,23.6338,VALID,75,VALID,0,
2008-03-19, 00:36:04,VALID,1007.46,VALID,0,VALID,95.6803,VALID,0.105969,VALID,23.6143,VALID,75,VALID,0,
2008-03-19, 00:37:04,VALID,1007.46,VALID,0,VALID,95.7185,VALID,0.105969,VALID,23.6161,VALID,75,VALID,0,
2008-03-19, 00:38:04,VALID,1007.47,VALID,0,VALID,95.7718,VALID,0,VALID,23.5948,VALID,75,VALID,0,
2008-03-19, 00:39:04,VALID,1007.47,VALID,0,VALID,95.81,VALID,0.105969,VALID,23.6161,VALID,75,VALID,0,
2008-03-19, 00:40:04,VALID,1007.48,VALID,0,VALID,95.8481,VALID,0.105969,VALID,23.5966,VALID,75,VALID,0,
2008-03-19, 00:41:04,VALID,1007.51,VALID,0,VALID,95.8786,VALID,0.105969,VALID,23.5753,VALID,75,VALID,0,
2008-03-19, 00:42:04,VALID,1007.49,VALID,0,VALID,95.9167,VALID,0,VALID,23.5966,VALID,75,VALID,0,
2008-03-19, 00:43:04,VALID,1007.47,VALID,0,VALID,95.932,VALID,0.105969,VALID,23.5966,VALID,75,VALID,0,
2008-03-19, 00:44:04,VALID,1007.47,VALID,0,VALID,95.9244,VALID,0,VALID,23.5753,VALID,75,VALID,0,
2008-03-19, 00:45:04,VALID,1007.44,VALID,0,VALID,95.9244,VALID,0.105969,VALID,23.5558,VALID,75,VALID,0,
2008-03-19, 00:46:04,VALID,1007.45,VALID,0,VALID,95.9472,VALID,0.105969,VALID,23.5576,VALID,75,VALID,0,
2008-03-19, 00:47:04,VALID,1007.44,VALID,0,VALID,96.0006,VALID,0.105969,VALID,23.5771,VALID,75,VALID,0,
2008-03-19, 00:48:04,VALID,1007.44,VALID,0,VALID,96.0159,VALID,0.105969,VALID,23.5771,VALID,75,VALID,0,
2008-03-19, 00:49:04,VALID,1007.43,VALID,0,VALID,96.0464,VALID,0,VALID,23.5363,VALID,75,VALID,0,
2008-03-19, 00:50:04,VALID,1007.4,VALID,0,VALID,96.0616,VALID,0.105969,VALID,23.5363,VALID,75,VALID,0,
2008-03-19, 00:51:04,VALID,1007.42,VALID,0,VALID,96.0692,VALID,0,VALID,23.5576,VALID,75,VALID,0,
2008-03-19, 00:52:04,VALID,1007.42,VALID,0,VALID,96.0464,VALID,0,VALID,23.5381,VALID,75,VALID,0,
2008-03-19, 00:53:04,VALID,1007.41,VALID,0,VALID,95.9777,VALID,0,VALID,23.5186,VALID,75,VALID,0,
2008-03-19, 00:54:04,VALID,1007.42,VALID,0,VALID,95.9701,VALID,0,VALID,23.4992,VALID,75,VALID,0,
2008-03-19, 00:55:04,VALID,1007.42,VALID,0,VALID,95.9625,VALID,0.105969,VALID,23.4797,VALID,75,VALID,0,
2008-03-19, 00:56:04,VALID,1007.45,VALID,0,VALID,95.993,VALID,0.211938,VALID,23.4584,VALID,75,VALID,0,
2008-03-19, 00:57:04,VALID,1007.48,VALID,0,VALID,96.0311,VALID,0.105969,VALID,23.4389,VALID,75,VALID,0,
2008-03-19, 00:58:04,VALID,1007.46,VALID,0,VALID,96.0311,VALID,0.105969,VALID,23.4389,VALID,75,VALID,0,
2008-03-19, 00:59:04,VALID,1007.47,VALID,0,VALID,96.0387,VALID,0.105969,VALID,23.4194,VALID,75,VALID,0,
2008-03-19, 01:00:04,VALID,1007.44,VALID,0,VALID,96.0464,VALID,0.105969,VALID,23.4194,VALID,75,VALID,0,
2008-03-19, 01:01:04,VALID,1007.44,VALID,0,VALID,96.0769,VALID,0.105969,VALID,23.4,VALID,75,VALID,0,
2008-03-19, 01:02:04,VALID,1007.43,VALID,0,VALID,96.0845,VALID,0,VALID,23.4212,VALID,75,VALID,0,
2008-03-19, 01:03:04,VALID,1007.43,VALID,0,VALID,96.1302,VALID,0.105969,VALID,23.4,VALID,75,VALID,0,
2008-03-19, 01:04:04,VALID,1007.46,VALID,0,VALID,96.1684,VALID,0,VALID,23.4212,VALID,75,VALID,0,
2008-03-19, 01:05:04,VALID,1007.48,VALID,0,VALID,96.1989,VALID,0.105969,VALID,23.4212,VALID,75,VALID,0,
2008-03-19, 01:06:04,VALID,1007.47,VALID,0,VALID,96.2141,VALID,0.105969,VALID,23.4194,VALID,75,VALID,0,
2008-03-19, 01:07:04,VALID,1007.5,VALID,0,VALID,96.2446,VALID,0.105969,VALID,23.4,VALID,75,VALID,0,
2008-03-19, 01:08:04,VALID,1007.51,VALID,0,VALID,96.237,VALID,0.105969,VALID,23.4194,VALID,75,VALID,0,
2008-03-19, 01:09:04,VALID,1007.51,VALID,0,VALID,96.237,VALID,0.105969,VALID,23.4194,VALID,75,VALID,0,
2008-03-19, 01:10:04,VALID,1007.5,VALID,0,VALID,96.2446,VALID,0.105969,VALID,23.4212,VALID,75,VALID,0,
2008-03-19, 01:11:04,VALID,1007.49,VALID,0,VALID,96.1989,VALID,0.105969,VALID,23.3805,VALID,75,VALID,0,
2008-03-19, 01:12:04,VALID,1007.49,VALID,0,VALID,96.1989,VALID,0.105969,VALID,23.3823,VALID,75,VALID,0,
2008-03-19, 01:13:04,VALID,1007.46,VALID,0,VALID,96.1608,VALID,0.105969,VALID,23.3415,VALID,75,VALID,0,
2008-03-19, 01:14:04,VALID,1007.43,VALID,0,VALID,96.1684,VALID,0.105969,VALID,23.3433,VALID,75,VALID,0,
2008-03-19, 01:15:04,VALID,1007.36,VALID,0,VALID,96.1379,VALID,0,VALID,23.3043,VALID,75,VALID,0,
2008-03-19, 01:16:04,VALID,1007.37,VALID,0,VALID,96.1226,VALID,0.105969,VALID,23.2636,VALID,75,VALID,0,
2008-03-19, 01:17:04,VALID,1007.35,VALID,0,VALID,96.1836,VALID,0.105969,VALID,23.2636,VALID,75,VALID,0,
2008-03-19, 01:18:04,VALID,1007.31,VALID,0,VALID,96.3056,VALID,0.105969,VALID,23.3026,VALID,75,VALID,0,
2008-03-19, 01:19:05,VALID,1007.3,VALID,0,VALID,96.359,VALID,0.105969,VALID,23.3415,VALID,75,VALID,0,
2008-03-19, 01:20:05,VALID,1007.3,VALID,0,VALID,96.3743,VALID,0.105969,VALID,23.361,VALID,75,VALID,0,
2008-03-19, 01:21:05,VALID,1007.32,VALID,0,VALID,96.4048,VALID,0.105969,VALID,23.361,VALID,75,VALID,0,
2008-03-19, 01:22:05,VALID,1007.31,VALID,0,VALID,96.3895,VALID,0.105969,VALID,23.4017,VALID,75,VALID,0,
2008-03-19, 01:23:05,VALID,1007.31,VALID,0,VALID,96.3666,VALID,0.105969,VALID,23.3805,VALID,75,VALID,0,
2008-03-19, 01:24:05,VALID,1007.34,VALID,0,VALID,96.359,VALID,0.105969,VALID,23.4017,VALID,75,VALID,0,
2008-03-19, 01:25:05,VALID,1007.33,VALID,0,VALID,96.3514,VALID,0,VALID,23.3823,VALID,75,VALID,0,
2008-03-19, 01:26:05,VALID,1007.34,VALID,0,VALID,96.3438,VALID,0,VALID,23.3628,VALID,75,VALID,0,
2008-03-19, 01:27:05,VALID,1007.34,VALID,0,VALID,96.3514,VALID,0,VALID,23.3628,VALID,75,VALID,0,
2008-03-19, 01:28:05,VALID,1007.32,VALID,0,VALID,96.3056,VALID,0,VALID,23.3645,VALID,75,VALID,0,
2008-03-19, 01:29:05,VALID,1007.31,VALID,0,VALID,96.3056,VALID,0,VALID,23.3433,VALID,75,VALID,0,
2008-03-19, 01:30:05,VALID,1007.29,VALID,0,VALID,96.3285,VALID,0,VALID,23.3238,VALID,75,VALID,0,
2008-03-19, 01:31:05,VALID,1007.31,VALID,0,VALID,96.3361,VALID,0,VALID,23.3238,VALID,75,VALID,0,
2008-03-19, 01:32:05,VALID,1007.31,VALID,0,VALID,96.2675,VALID,0,VALID,23.2848,VALID,75,VALID,0,
2008-03-19, 01:33:05,VALID,1007.33,VALID,0,VALID,96.2675,VALID,0,VALID,23.3061,VALID,75,VALID,0,
2008-03-19, 01:34:05,VALID,1007.32,VALID,0,VALID,96.3133,VALID,0,VALID,23.2848,VALID,75,VALID,0,
2008-03-19, 01:35:05,VALID,1007.32,VALID,0,VALID,96.3438,VALID,0,VALID,23.3061,VALID,75,VALID,0,
2008-03-19, 01:36:05,VALID,1007.32,VALID,0,VALID,96.2904,VALID,0,VALID,23.2671,VALID,75,VALID,0,
2008-03-19, 01:37:05,VALID,1007.3,VALID,0,VALID,96.298,VALID,0,VALID,23.2654,VALID,75,VALID,0,
2008-03-19, 01:38:05,VALID,1007.29,VALID,0,VALID,96.3438,VALID,0,VALID,23.3061,VALID,75,VALID,0,
2008-03-19, 01:39:05,VALID,1007.3,VALID,0,VALID,96.3666,VALID,0,VALID,23.2654,VALID,75,VALID,0,
2008-03-19, 01:40:05,VALID,1007.29,VALID,0,VALID,96.359,VALID,0.105969,VALID,23.2848,VALID,75,VALID,0,
2008-03-19, 01:41:05,VALID,1007.28,VALID,0,VALID,96.359,VALID,0.105969,VALID,23.2636,VALID,75,VALID,0,
2008-03-19, 01:42:05,VALID,1007.32,VALID,0,VALID,96.359,VALID,0.105969,VALID,23.2636,VALID,75,VALID,0,
2008-03-19, 01:43:05,VALID,1007.3,VALID,0,VALID,96.3743,VALID,0.105969,VALID,23.2441,VALID,75,VALID,0,
2008-03-19, 01:44:05,VALID,1007.28,VALID,0,VALID,96.3743,VALID,0.105969,VALID,23.2654,VALID,75,VALID,0,
2008-03-19, 01:45:05,VALID,1007.3,VALID,0,VALID,96.3743,VALID,0,VALID,23.2848,VALID,75,VALID,0,
2008-03-19, 01:46:05,VALID,1007.26,VALID,0,VALID,96.3895,VALID,0,VALID,23.2636,VALID,75,VALID,0,
2008-03-19, 01:47:05,VALID,1007.28,VALID,0,VALID,96.4048,VALID,0.105969,VALID,23.2831,VALID,75,VALID,0,
2008-03-19, 01:48:05,VALID,1007.24,VALID,0,VALID,96.4429,VALID,0.105969,VALID,23.3043,VALID,75,VALID,0,
2008-03-19, 01:49:05,VALID,1007.25,VALID,0,VALID,96.4505,VALID,0.105969,VALID,23.3026,VALID,75,VALID,0,
2008-03-19, 01:50:05,VALID,1007.25,VALID,0,VALID,96.4505,VALID,0.105969,VALID,23.322,VALID,75,VALID,0,
2008-03-19, 01:51:05,VALID,1007.27,VALID,0,VALID,96.4505,VALID,0.105969,VALID,23.3433,VALID,75,VALID,0,
2008-03-19, 01:52:05,VALID,1007.25,VALID,0,VALID,96.4582,VALID,0.105969,VALID,23.3415,VALID,105,VALID,0.380469,
2008-03-19, 01:53:05,VALID,1007.27,VALID,0,VALID,96.4353,VALID,0.105969,VALID,23.361,VALID,105,VALID,0.364844,
2008-03-19, 01:54:05,VALID,1007.27,VALID,0,VALID,96.3971,VALID,0.105969,VALID,23.3628,VALID,109,VALID,0.337891,
2008-03-19, 01:55:05,VALID,1007.27,VALID,0,VALID,96.3285,VALID,0.105969,VALID,23.3026,VALID,112,VALID,0.212109,
2008-03-19, 01:56:05,VALID,1007.26,VALID,0,VALID,96.3361,VALID,0.105969,VALID,23.3238,VALID,124,VALID,0.342187,
2008-03-19, 01:57:05,VALID,1007.22,VALID,0,VALID,96.3666,VALID,0.105969,VALID,23.3433,VALID,142,VALID,0.558984,
2008-03-19, 01:58:05,VALID,1007.21,VALID,0,VALID,96.3743,VALID,0.105969,VALID,23.3415,VALID,142,VALID,0.407031,
2008-03-19, 01:59:05,VALID,1007.2,VALID,0,VALID,96.3361,VALID,0.105969,VALID,23.3026,VALID,153,VALID,0.330469,
2008-03-19, 02:00:05,VALID,1007.16,VALID,0,VALID,96.359,VALID,0.105969,VALID,23.322,VALID,156,VALID,0.205859,
2008-03-19, 02:01:05,VALID,1007.17,VALID,0,VALID,96.3361,VALID,0.105969,VALID,23.3238,VALID,156,VALID,0.15,
2008-03-19, 02:02:05,VALID,1007.17,VALID,0,VALID,96.359,VALID,0.105969,VALID,23.3433,VALID,156,VALID,0.0476562,
2008-03-19, 02:03:05,VALID,1007.14,VALID,0,VALID,96.3743,VALID,0.105969,VALID,23.3238,VALID,156,VALID,0.150781,
2008-03-19, 02:04:05,VALID,1007.13,VALID,0,VALID,96.3819,VALID,0.105969,VALID,23.322,VALID,156,VALID,0.13125,
2008-03-19, 02:05:05,VALID,1007.14,VALID,0,VALID,96.3743,VALID,0.105969,VALID,23.322,VALID,162,VALID,0.226953,
2008-03-19, 02:06:05,VALID,1007.13,VALID,0,VALID,96.3666,VALID,0.105969,VALID,23.3415,VALID,165,VALID,0.0667969,
2008-03-19, 02:07:05,VALID,1007.13,VALID,0,VALID,96.3666,VALID,0.105969,VALID,23.3433,VALID,165,VALID,0.000390625,
2008-03-19, 02:08:05,VALID,1007.13,VALID,0,VALID,96.359,VALID,0,VALID,23.3433,VALID,165,VALID,0.209766,
2008-03-19, 02:09:05,VALID,1007.14,VALID,0,VALID,96.3438,VALID,0.105969,VALID,23.322,VALID,165,VALID,0.2,
2008-03-19, 02:10:05,VALID,1007.13,VALID,0,VALID,96.3361,VALID,0.105969,VALID,23.3026,VALID,165,VALID,0.13125,
2008-03-19, 02:11:05,VALID,1007.12,VALID,0,VALID,96.3438,VALID,0.105969,VALID,23.3026,VALID,166,VALID,0.305078,
2008-03-19, 02:12:05,VALID,1007.11,VALID,0,VALID,96.359,VALID,0.105969,VALID,23.3238,VALID,170,VALID,0.194922,
2008-03-19, 02:13:05,VALID,1007.1,VALID,0,VALID,96.3895,VALID,0,VALID,23.322,VALID,177,VALID,0.255469,
2008-03-19, 02:14:05,VALID,1007.09,VALID,0,VALID,96.3971,VALID,0.105969,VALID,23.3415,VALID,205,VALID,0.275391,
2008-03-19, 02:15:05,VALID,1007.05,VALID,0,VALID,96.4048,VALID,0,VALID,23.361,VALID,205,VALID,0,
2008-03-19, 02:16:05,VALID,1007.03,VALID,0,VALID,96.4277,VALID,0.105969,VALID,23.3805,VALID,205,VALID,0.146875,
2008-03-19, 02:17:05,VALID,1007,VALID,0,VALID,96.3971,VALID,0.105969,VALID,23.3805,VALID,220,VALID,0.181641,
2008-03-19, 02:18:05,VALID,1007,VALID,0,VALID,96.3209,VALID,0.105969,VALID,23.361,VALID,220,VALID,0.126953,
2008-03-19, 02:19:05,VALID,1006.98,VALID,0,VALID,96.2446,VALID,0.105969,VALID,23.361,VALID,229,VALID,0.136328,
2008-03-19, 02:20:05,VALID,1006.95,VALID,0,VALID,96.2446,VALID,0.105969,VALID,23.3628,VALID,229,VALID,0.0882813,
2008-03-19, 02:21:05,VALID,1006.96,VALID,0,VALID,96.2294,VALID,0.105969,VALID,23.3433,VALID,229,VALID,0,
2008-03-19, 02:22:05,VALID,1006.94,VALID,0,VALID,96.2294,VALID,0.105969,VALID,23.3238,VALID,229,VALID,0,
2008-03-19, 02:23:05,VALID,1006.96,VALID,0,VALID,96.237,VALID,0,VALID,23.3238,VALID,229,VALID,0,
2008-03-19, 02:24:05,VALID,1006.96,VALID,0,VALID,96.2446,VALID,0,VALID,23.3238,VALID,229,VALID,0,
2008-03-19, 02:25:05,VALID,1006.95,VALID,0,VALID,96.2828,VALID,0.105969,VALID,23.322,VALID,229,VALID,0,
2008-03-19, 02:26:05,VALID,1006.95,VALID,0,VALID,96.2751,VALID,0.105969,VALID,23.322,VALID,229,VALID,0,
2008-03-19, 02:27:05,VALID,1006.96,VALID,0,VALID,96.2675,VALID,0.105969,VALID,23.3238,VALID,229,VALID,0,
2008-03-19, 02:28:05,VALID,1006.97,VALID,0,VALID,96.2675,VALID,0.105969,VALID,23.3238,VALID,229,VALID,0,
2008-03-19, 02:29:05,VALID,1006.99,VALID,0,VALID,96.2446,VALID,0,VALID,23.2636,VALID,229,VALID,0,
2008-03-19, 02:30:05,VALID,1006.98,VALID,0,VALID,96.237,VALID,0.105969,VALID,23.2848,VALID,229,VALID,0,
2008-03-19, 02:31:05,VALID,1006.97,VALID,0,VALID,96.3056,VALID,0.105969,VALID,23.2636,VALID,229,VALID,0,
2008-03-19, 02:32:05,VALID,1006.95,VALID,0,VALID,96.3743,VALID,0.105969,VALID,23.3026,VALID,229,VALID,0,
2008-03-19, 02:33:05,VALID,1006.98,VALID,0,VALID,96.3895,VALID,0.105969,VALID,23.3043,VALID,229,VALID,0.246875,
2008-03-19, 02:34:05,VALID,1006.98,VALID,0,VALID,96.3514,VALID,0,VALID,23.2831,VALID,230,VALID,0.314453,
2008-03-19, 02:35:05,VALID,1006.99,VALID,0,VALID,96.359,VALID,0.105969,VALID,23.3238,VALID,229,VALID,0.282813,
2008-03-19, 02:36:05,VALID,1006.99,VALID,0,VALID,96.298,VALID,0.105969,VALID,23.2831,VALID,229,VALID,0.248828,
2008-03-19, 02:37:05,VALID,1006.97,VALID,0,VALID,96.2675,VALID,0.105969,VALID,23.2441,VALID,229,VALID,0.326953,
2008-03-19, 02:38:05,VALID,1006.98,VALID,0,VALID,96.2599,VALID,0.105969,VALID,23.2441,VALID,229,VALID,0.298828,
2008-03-19, 02:39:05,VALID,1006.97,VALID,0,VALID,96.2599,VALID,0.105969,VALID,23.2246,VALID,229,VALID,0.278906,
2008-03-19, 02:40:05,VALID,1006.98,VALID,0,VALID,96.2828,VALID,0,VALID,23.2069,VALID,229,VALID,0.202734,
2008-03-19, 02:41:05,VALID,1006.98,VALID,0,VALID,96.2828,VALID,0.105969,VALID,23.2069,VALID,229,VALID,0.128125,
2008-03-19, 02:42:05,VALID,1007.02,VALID,0,VALID,96.2294,VALID,0,VALID,23.1679,VALID,229,VALID,0.132422,
2008-03-19, 02:43:05,VALID,1007.06,VALID,0,VALID,96.3056,VALID,0,VALID,23.1679,VALID,214,VALID,0.242578,
2008-03-19, 02:44:05,VALID,1007.08,VALID,0,VALID,96.3209,VALID,0,VALID,23.1485,VALID,213,VALID,0.166406,
2008-03-19, 02:45:05,VALID,1007.06,VALID,0,VALID,96.3285,VALID,0,VALID,23.1697,VALID,213,VALID,0.19375,
2008-03-19, 02:46:05,VALID,1007.09,VALID,0,VALID,96.3133,VALID,0,VALID,23.1485,VALID,213,VALID,0,
2008-03-19, 02:47:05,VALID,1007.09,VALID,0,VALID,96.3438,VALID,0,VALID,23.1502,VALID,214,VALID,0.275781,
2008-03-19, 02:48:05,VALID,1007.08,VALID,0,VALID,96.359,VALID,0,VALID,23.129,VALID,213,VALID,0.166797,
2008-03-19, 02:49:05,VALID,1007.08,VALID,0,VALID,96.3743,VALID,0,VALID,23.129,VALID,214,VALID,0.0894531,
2008-03-19, 02:50:05,VALID,1007.08,VALID,0,VALID,96.3895,VALID,0,VALID,23.1502,VALID,214,VALID,0.0078125,
2008-03-19, 02:51:05,VALID,1007.12,VALID,0,VALID,96.3971,VALID,0,VALID,23.129,VALID,214,VALID,0,
2008-03-19, 02:52:05,VALID,1007.12,VALID,0,VALID,96.42,VALID,0,VALID,23.129,VALID,213,VALID,0,
2008-03-19, 02:53:05,VALID,1007.14,VALID,0,VALID,96.4124,VALID,0,VALID,23.129,VALID,214,VALID,0,
2008-03-19, 02:54:05,VALID,1007.14,VALID,0,VALID,96.4124,VALID,0,VALID,23.1095,VALID,214,VALID,0,
2008-03-19, 02:55:05,VALID,1007.14,VALID,0,VALID,96.42,VALID,0,VALID,23.1095,VALID,214,VALID,0,
2008-03-19, 02:56:05,VALID,1007.15,VALID,0,VALID,96.3895,VALID,0,VALID,23.1112,VALID,214,VALID,0,
2008-03-19, 02:57:05,VALID,1007.13,VALID,0,VALID,96.42,VALID,0,VALID,23.09,VALID,214,VALID,0,
2008-03-19, 02:58:05,VALID,1007.13,VALID,0,VALID,96.4124,VALID,0,VALID,23.0918,VALID,214,VALID,0,
2008-03-19, 02:59:05,VALID,1007.1,VALID,0,VALID,96.3514,VALID,0,VALID,23.0528,VALID,213,VALID,0,
2008-03-19, 03:00:05,VALID,1007.08,VALID,0,VALID,96.4048,VALID,0,VALID,23.0723,VALID,214,VALID,0,
2008-03-19, 03:01:05,VALID,1007.07,VALID,0,VALID,96.4277,VALID,0,VALID,23.0723,VALID,214,VALID,0,
2008-03-19, 03:02:05,VALID,1007.05,VALID,0,VALID,96.4505,VALID,0,VALID,23.0316,VALID,214,VALID,0,
2008-03-19, 03:03:05,VALID,1007.05,VALID,0,VALID,96.4429,VALID,0,VALID,23.0528,VALID,214,VALID,0.109766,
2008-03-19, 03:04:05,VALID,1007.05,VALID,0,VALID,96.4124,VALID,0,VALID,23.0121,VALID,214,VALID,0.122656,
2008-03-19, 03:05:05,VALID,1007.06,VALID,0,VALID,96.3743,VALID,0,VALID,22.9731,VALID,214,VALID,0.140234,
2008-03-19, 03:06:05,VALID,1007.05,VALID,0,VALID,96.3438,VALID,0,VALID,22.9554,VALID,213,VALID,0.141406,
2008-03-19, 03:07:05,VALID,1007.07,VALID,0,VALID,96.3514,VALID,0,VALID,22.9342,VALID,213,VALID,0.117578,
2008-03-19, 03:08:05,VALID,1007.09,VALID,0,VALID,96.3743,VALID,0,VALID,22.9359,VALID,214,VALID,0.116797,
2008-03-19, 03:09:05,VALID,1007.09,VALID,0,VALID,96.3743,VALID,0,VALID,22.9164,VALID,213,VALID,0.0636719,
2008-03-19, 03:10:05,VALID,1007.07,VALID,0,VALID,96.4048,VALID,0,VALID,22.8952,VALID,213,VALID,0,
2008-03-19, 03:11:05,VALID,1007.04,VALID,0,VALID,96.359,VALID,0,VALID,22.8757,VALID,214,VALID,0,
2008-03-19, 03:12:05,VALID,1007.05,VALID,0,VALID,96.4963,VALID,0,VALID,22.9164,VALID,214,VALID,0,
2008-03-19, 03:13:05,VALID,1007.06,VALID,0,VALID,96.6183,VALID,0,VALID,22.9749,VALID,214,VALID,0,
2008-03-19, 03:14:05,VALID,1007.06,VALID,0,VALID,96.6183,VALID,0,VALID,23.0138,VALID,214,VALID,0,
2008-03-19, 03:15:05,VALID,1007.09,VALID,0,VALID,96.6793,VALID,0,VALID,23.0333,VALID,214,VALID,0,
2008-03-19, 03:16:05,VALID,1007.08,VALID,0,VALID,96.6488,VALID,0,VALID,23.0511,VALID,214,VALID,0,
2008-03-19, 03:17:05,VALID,1007.08,VALID,0,VALID,96.6564,VALID,0,VALID,23.0918,VALID,214,VALID,0,
2008-03-19, 03:18:05,VALID,1007.08,VALID,0,VALID,96.664,VALID,0,VALID,23.1112,VALID,214,VALID,0,
2008-03-19, 03:19:05,VALID,1007.08,VALID,0,VALID,96.6412,VALID,0,VALID,23.1112,VALID,214,VALID,0,
2008-03-19, 03:20:05,VALID,1007.08,VALID,0,VALID,96.6335,VALID,0,VALID,23.0918,VALID,214,VALID,0,
2008-03-19, 03:21:05,VALID,1007.07,VALID,0,VALID,96.6335,VALID,0,VALID,23.09,VALID,214,VALID,0,
2008-03-19, 03:22:05,VALID,1007.06,VALID,0,VALID,96.6259,VALID,0,VALID,23.0918,VALID,214,VALID,0,
2008-03-19, 03:23:05,VALID,1007.05,VALID,0,VALID,96.603,VALID,0,VALID,23.0918,VALID,214,VALID,0,
2008-03-19, 03:24:05,VALID,1007.08,VALID,0,VALID,96.5649,VALID,0,VALID,23.0316,VALID,213,VALID,0,
2008-03-19, 03:25:05,VALID,1007.09,VALID,0,VALID,96.6183,VALID,0.105969,VALID,23.0511,VALID,214,VALID,0,
2008-03-19, 03:26:05,VALID,1007.1,VALID,0,VALID,96.664,VALID,0.105969,VALID,23.0511,VALID,214,VALID,0,
2008-03-19, 03:27:05,VALID,1007.1,VALID,0,VALID,96.5802,VALID,0.105969,VALID,23.0316,VALID,214,VALID,0,
2008-03-19, 03:28:05,VALID,1007.12,VALID,0,VALID,96.5802,VALID,0,VALID,22.9926,VALID,214,VALID,0,
2008-03-19, 03:29:05,VALID,1007.11,VALID,0,VALID,96.5725,VALID,0.105969,VALID,22.9714,VALID,214,VALID,0,
2008-03-19, 03:30:05,VALID,1007.14,VALID,0,VALID,96.5725,VALID,0.105969,VALID,22.9731,VALID,214,VALID,0,
2008-03-19, 03:31:05,VALID,1007.15,VALID,0,VALID,96.603,VALID,0.105969,VALID,22.9324,VALID,214,VALID,0,
2008-03-19, 03:32:05,VALID,1007.16,VALID,0,VALID,96.6107,VALID,0.105969,VALID,22.9324,VALID,214,VALID,0,
2008-03-19, 03:33:05,VALID,1007.15,VALID,0,VALID,96.5802,VALID,0.105969,VALID,22.9129,VALID,214,VALID,0,
2008-03-19, 03:34:05,VALID,1007.16,VALID,0,VALID,96.5573,VALID,0.105969,VALID,22.874,VALID,214,VALID,0,
2008-03-19, 03:35:05,VALID,1007.16,VALID,0,VALID,96.5649,VALID,0.105969,VALID,22.8757,VALID,214,VALID,0,
2008-03-19, 03:36:05,VALID,1007.14,VALID,0,VALID,96.5573,VALID,0.105969,VALID,22.8562,VALID,214,VALID,0,
2008-03-19, 03:37:05,VALID,1007.12,VALID,0,VALID,96.5725,VALID,0.105969,VALID,22.7961,VALID,214,VALID,0,
2008-03-19, 03:38:05,VALID,1007.12,VALID,0,VALID,96.6488,VALID,0.105969,VALID,22.8155,VALID,214,VALID,0,
2008-03-19, 03:39:05,VALID,1007.13,VALID,0,VALID,96.664,VALID,0.105969,VALID,22.8155,VALID,214,VALID,0,
2008-03-19, 03:40:05,VALID,1007.13,VALID,0,VALID,96.7022,VALID,0,VALID,22.8775,VALID,214,VALID,0,
2008-03-19, 03:41:05,VALID,1007.13,VALID,0,VALID,96.6869,VALID,0,VALID,22.8368,VALID,214,VALID,0,
2008-03-19, 03:42:05,VALID,1007.15,VALID,0,VALID,96.6946,VALID,0,VALID,22.8368,VALID,214,VALID,0,
2008-03-19, 03:43:05,VALID,1007.15,VALID,0,VALID,96.6717,VALID,0,VALID,22.8368,VALID,214,VALID,0,
2008-03-19, 03:44:05,VALID,1007.16,VALID,0,VALID,96.6869,VALID,0,VALID,22.8385,VALID,214,VALID,0,
2008-03-19, 03:45:05,VALID,1007.15,VALID,0,VALID,96.6793,VALID,0,VALID,22.8173,VALID,214,VALID,0,
2008-03-19, 03:46:05,VALID,1007.14,VALID,0,VALID,96.6946,VALID,0,VALID,22.8385,VALID,214,VALID,0,
2008-03-19, 03:47:05,VALID,1007.15,VALID,0,VALID,96.7022,VALID,0,VALID,22.8173,VALID,214,VALID,0,
2008-03-19, 03:48:05,VALID,1007.17,VALID,0,VALID,96.7174,VALID,0,VALID,22.8173,VALID,214,VALID,0,